DW9007 Weather Reports


Display with metric or nautical units.
time (UTC)temp
F
wind
direction
speed
MPH
gust
MPH
rain 1hr
in
rain 24hr
in
rain mn
in
humidity
%
barometer
mb
20260508153006 61 121 0.0 2.0 0.00 0.00 0.00 77 1016.3
20260508151506 61 110 0.0 5.0 0.00 0.00 0.00 79 1016.7
20260508150048 60 87 0.0 5.0 0.00 0.00 0.00 82 1016.9
20260508144547 59 98 0.0 5.0 0.00 0.00 0.00 83 1016.9
20260508143029 59 74 0.0 1.0 0.00 0.00 0.00 86 1016.9
20260508141529 58 69 0.0 3.0 0.00 0.00 0.00 89 1016.9
20260508140013 57 93 0.0 3.0 0.00 0.00 0.00 91 1017.3
20260508134512 55 72 0.0 0.0 0.00 0.00 0.00 93 1017.3
20260508133051 54 72 0.0 0.0 0.00 0.00 0.00 93 1017.1
20260508131552 54 72 0.0 0.0 0.00 0.00 0.00 93 1017.0
20260508130032 53 72 0.0 0.0 0.00 0.00 0.00 94 1016.9
20260508124531 53 72 0.0 0.0 0.00 0.00 0.00 94 1017.0
20260508123013 52 72 0.0 0.0 0.00 0.00 0.00 94 1016.8
20260508121511 52 72 0.0 0.0 0.00 0.00 0.00 94 1016.6
20260508120052 52 72 0.0 0.0 0.00 0.00 0.00 95 1016.5
20260508114604 51 72 0.0 0.0 0.00 0.00 0.00 94 1016.3
20260508113030 51 72 0.0 0.0 0.00 0.00 0.00 94 1016.1
20260508111531 51 72 0.0 0.0 0.00 0.00 0.00 94 1015.8
20260508110019 51 72 0.0 0.0 0.00 0.00 0.00 94 1015.8
20260508104514 51 72 0.0 0.0 0.00 0.00 0.00 94 1015.6
20260508103021 51 72 0.0 0.0 0.00 0.00 0.00 94 1015.5
20260508101512 51 72 0.0 0.0 0.00 0.00 0.00 94 1015.2
20260508100010 51 72 0.0 0.0 0.00 0.00 0.00 94 1015.1
20260508094510 51 72 0.0 0.0 0.00 0.00 0.00 93 1014.8
20260508093008 52 72 0.0 0.0 0.00 0.00 0.00 93 1014.4
20260508091507 52 72 0.0 0.0 0.00 0.00 0.00 93 1014.1
20260508090052 52 72 0.0 0.0 0.00 0.00 0.00 93 1014.0
20260508084549 52 72 0.0 0.0 0.00 0.00 0.00 93 1013.9
20260508083030 52 72 0.0 0.0 0.00 0.00 0.00 93 1013.7
20260508081542 52 72 0.0 0.0 0.00 0.00 0.00 93 1013.9
20260508080011 52 72 0.0 0.0 0.00 0.00 0.00 93 1014.0
20260508074511 53 72 0.0 0.0 0.00 0.00 0.00 93 1014.1
20260508073053 53 72 0.0 0.0 0.00 0.00 0.00 93 1014.3
20260508071550 54 72 0.0 0.0 0.00 0.00 0.00 93 1014.2
20260508070031 54 72 0.0 0.0 0.00 0.00 0.00 93 1014.2
20260508064530 54 72 0.0 0.0 0.00 0.00 0.00 93 1014.2
20260508063011 55 72 0.0 0.0 0.00 0.00 0.00 93 1014.4
20260508061511 55 72 0.0 0.0 0.00 0.00 0.00 92 1014.4
20260508060053 55 72 0.0 0.0 0.00 0.00 0.00 92 1014.3
20260508054552 55 72 0.0 0.0 0.00 0.00 0.00 92 1014.6
20260508053034 55 72 0.0 0.0 0.00 0.00 0.00 92 1014.8
20260508051537 55 72 0.0 0.0 0.00 0.00 0.00 91 1014.9
20260508050014 55 72 0.0 0.0 0.00 0.00 0.00 91 1014.9
20260508044513 55 72 0.0 0.0 0.00 0.00 0.00 90 1014.8
20260508043055 56 72 0.0 0.0 0.00 0.00 0.00 90 1015.0
20260508041552 56 72 0.0 0.0 0.00 0.00 0.00 90 1015.1
20260508040033 56 72 0.0 0.0 0.00 0.00 0.00 89 1014.9
20260508034534 57 72 0.0 0.0 0.00 0.00 0.00 89 1014.8
20260508033011 58 72 0.0 0.0 0.00 0.00 0.00 87 1014.9
20260508031508 58 72 0.0 0.0 0.00 0.00 0.00 87 1014.6
20260508030050 59 72 0.0 0.0 0.00 0.00 0.00 86 1014.7
20260508024557 59 72 0.0 0.0 0.00 0.00 0.00 85 1014.8
20260508023029 59 72 0.0 0.0 0.00 0.00 0.00 84 1014.2
20260508021528 60 72 0.0 0.0 0.00 0.00 0.00 83 1014.5
20260508020011 61 72 0.0 0.0 0.00 0.00 0.00 82 1014.2
20260508014505 61 72 0.0 0.0 0.00 0.00 0.00 80 1014.1
20260508013043 62 72 0.0 0.0 0.00 0.00 0.00 79 1014.0
20260508011542 63 72 0.0 0.0 0.00 0.00 0.00 79 1014.0
20260508010022 63 72 0.0 0.0 0.00 0.00 0.00 78 1014.1
20260508004520 64 72 0.0 0.0 0.00 0.00 0.00 77 1013.6
20260508003059 65 73 0.0 0.0 0.00 0.00 0.00 76 1013.7
20260508001557 66 73 0.0 0.0 0.00 0.00 0.00 74 1013.7
20260508000036 66 73 0.0 2.0 0.00 0.00 0.00 73 1013.5
20260507234539 67 68 0.0 4.0 0.00 0.00 0.00 72 1013.2
20260507233017 67 74 0.0 4.0 0.00 0.00 0.00 72 1013.1
20260507231515 68 76 0.0 4.0 0.00 0.00 0.00 71 1013.1
20260507230114 68 101 0.0 5.0 0.00 0.00 0.00 71 1013.0
20260507224601 69 56 0.0 6.0 0.00 0.00 0.00 71 1012.9
20260507223059 69 67 0.0 5.0 0.00 0.00 0.00 72 1012.9
20260507221558 69 264 0.0 5.0 0.00 0.00 0.00 74 1012.7
20260507220056 70 360 2.0 10.0 0.00 0.00 0.00 74 1012.6
20260507214556 70 92 1.0 8.0 0.00 0.00 0.00 74 1012.6
20260507213054 69 296 0.0 3.0 0.00 0.00 0.00 75 1012.5
20260507211552 69 258 0.0 2.0 0.00 0.00 0.00 75 1012.4
20260507210050 68 300 0.0 5.0 0.00 0.00 0.00 79 1012.3
20260507204531 68 66 0.0 4.0 0.00 0.00 0.00 79 1012.4
20260507203031 68 182 0.0 4.0 0.00 0.00 0.00 79 1012.5
20260507201511 68 5 0.0 3.0 0.00 0.00 0.00 80 1012.6
20260507200011 67 12 0.0 3.0 0.00 0.00 0.00 80 1012.6
20260507194550 67 53 3.0 6.0 0.00 0.00 0.00 81 1012.7
20260507193052 67 308 0.0 5.0 0.00 0.00 0.00 83 1012.7
20260507191527 66 308 0.0 2.0 0.00 0.00 0.00 85 1012.9
20260507190026 65 17 0.0 8.0 0.00 0.00 0.00 86 1012.7
20260507184507 64 43 0.0 5.0 0.00 0.00 0.00 87 1012.9
20260507183007 64 44 0.0 4.0 0.00 0.00 0.00 88 1013.0
20260507181549 63 40 0.0 5.0 0.00 0.00 0.00 91 1013.4
20260507180049 62 90 1.0 7.0 0.00 0.00 0.00 90 1013.5
20260507174531 62 304 1.0 8.0 0.00 0.00 0.00 92 1013.7
20260507173040 61 272 0.0 6.0 0.00 0.00 0.00 92 1014.1
20260507171515 60 242 0.0 5.0 0.00 0.00 0.00 94 1014.3
20260507170013 59 79 0.0 5.0 0.00 0.00 0.00 95 1014.3
20260507164554 59 282 0.0 3.0 0.00 0.00 0.00 95 1014.2
20260507163052 58 214 0.0 1.0 0.00 0.00 0.00 95 1013.9
20260507161533 57 259 0.0 7.0 0.00 0.00 0.00 95 1013.8
20260507160032 57 28 1.0 7.0 0.00 0.00 0.00 96 1013.5
20260507154518 57 73 0.0 3.0 0.00 0.00 0.00 96 1013.4